Hourly Data Report for April 22, 2017

All times are specified in Local Standard Time (LST). Add 1 hour to adjust for Daylight Saving Time where and when it is observed.

WEKWEETI A
NORTHWEST TERRITORIES

64°11'27.000" N
114°04'36.000" W
368.20 m
2203980
YWE

Related Data

No related data is available for this station

Download Data

Hourly Data (April 2017)
Hourly Data Report for April 22, 2017
Temp Definition
°C
Dew Point Temp Definition
°C
Rel Hum Definition
%
Wind Dir Definition
10's deg

Wind Spd Definition
km/h
Visibility Definition
km
Stn Press Definition
kPa
Hmdx Definition


Wind Chill Definition


Weather Definition


TIME
00:00 Legend Double Dagger -26.9 -29.3 80 28 5 16.1 99.32   -32 LegendNANA
01:00 Legend Double Dagger -27.3 -29.4 83 25 5 16.1 99.33   -33 LegendNANA
02:00 Legend Double Dagger -29.2 -31.5 81   0 16.1 99.32     LegendNANA
03:00 Legend Double Dagger -31.0 -33.7 78 26 5 16.1 99.32   -37 LegendNANA
04:00 Legend Double Dagger -30.5 -33.2 78 22 4 16.1 99.29   -35 LegendNANA
05:00 Legend Double Dagger -33.3 -36.5 74 26 8 16.1 99.27   -42 LegendNANA
06:00 Legend Double Dagger -31.2 -34.1 76 25 9 16.1 99.23   -40 LegendNANA
07:00 Legend Double Dagger -30.3 -33.1 77 27 8 16.1 99.20   -38 LegendNANA
08:00 Legend Double Dagger -25.8 -28.3 80 24 5 16.1 99.16   -31 LegendNANA
09:00 Legend Double Dagger -22.6 -25.5 78 LegendMM 4 16.1 99.12   -26 LegendNANA
10:00 Legend Double Dagger -18.1 -22.5 69 25 8 16.1 99.08   -24 LegendNANA
11:00 Legend Double Dagger -15.6 -21.5 61 28 13 16.1 99.06   -23 LegendNANA
12:00 Legend Double Dagger -14.8 -21.4 58 28 13 16.1 99.01   -22 LegendNANA
13:00 Legend Double Dagger -13.8 -20.6 57 26 15 16.1 98.95   -21 LegendNANA
14:00 Legend Double Dagger -12.8 -19.2 59 25 15 16.1 98.89   -20 LegendNANA
15:00 Legend Double Dagger -11.7 -19.3 54 28 17 16.1 98.82   -19 LegendNANA
16:00 Legend Double Dagger -11.2 -19.3 52 29 15 16.1 98.75   -18 LegendNANA
17:00 Legend Double Dagger -11.2 -19.5 51 35 13 16.1 98.69   -18 LegendNANA
18:00 Legend Double Dagger -11.3 -19.6 51 34 8 16.1 98.64   -16 LegendNANA
19:00 Legend Double Dagger -12.3 -19.6 55 3 9 16.1 98.58   -18 LegendNANA
20:00 Legend Double Dagger -15.0 -20.6 63 9 8 16.1 98.56   -20 LegendNANA
21:00 Legend Double Dagger -16.8 -21.1 70 7 9 16.1 98.52   -23 LegendNANA
22:00 Legend Double Dagger -17.7 -21.4 73 7 9 16.1 98.48   -24 LegendNANA
23:00 Legend Double Dagger -19.7 -22.2 81 7 8 16.1 98.46   -26 LegendNANA

Notes on Data Quality.

Legend

  • E = Estimated
  • M = Missing
  • NA = Not Available
  • ‡ = Partner data that is not subject to review by the National Climate Archives
Date modified: